Find Starlink 30921

NORAD ID: 58383 Int'l Des: 2023-178 Owner: SPXS Country: US Constellation: starlink operational
LEOCIRCULAR

当前视图

正在加载3D地球...

About Starlink 30921

Starlink 30921 (NORAD 58383) is a starlink constellation satellite (v2 mini) launched Nov 20, 2023 by SPXS of US. It operates in LEO, CIRCULAR orbit with a mass of 730.00 kg.

关于 Starlink 30921

正在加载描述...

即将过境

Passes for default location (London). Set your location on the main map for personalized predictions.

高度历史

Loading altitude history...

两行轨道根数

1 58383U 23178K 26160.68496576 .00003760 00000-0 12239-3 0 9990
2 58383 53.1615 292.5429 0001446 84.6149 275.5018 15.34392841143972
Epoch: Jun 9, 2026 • Age: 14 hours

当前状态

高度 481.0 km
速度 7.62 km/s
星下点 -50.23°S, 125.12°W
发射日期 Nov 20, 2023
运行时间 2.5 years
类型 internet

技术详情

分类 Payload
质量 730.00 kg
干质量 700.00 kg
总质量 730.00 kg
长度 0.30 m
直径 4.10 m
跨度 29.00 m
形状 Box + pan
制造商 SPXS
平台类型 Starlink V2M
阶段状态 In Orbit
所有者/国家 SPXS/US

Most Searched